User: anonymous   Login
Location: Unspecified
(0.0000°N, 0.0000°E)
Time: 00:50:33
(UTC+00:00)
Language:

TBA - TO BE ASSIGNED - Orbit

View from above orbital plane
View from above orbital plane
View from above satellite
View from above satellite

Ground track
Ground track

The orbit is defined by the following mean orbital elements,

1 68857U          26145.58335647 +.00000000 +00000-0 +72570-3 0 00000
2 68857  97.2850 160.3737 0001365  85.7678 359.6989 15.49166309    03
Epoch (UTC): 25 May 2026 14:00:01
Eccentricity: 0.0001365
inclination: 97.2850°
perigee height: 418 km
apogee height: 420 km
right ascension of ascending node: 160.3737°
argument of perigee: 85.7678°
revolutions per day: 15.49166309
mean anomaly at epoch: 359.6989°

The dashed part of the orbit path shows where the satellite is in the earth's shadow,  

DLR